QPF
0.01 0.01 0.01 0.01 0.01 0.01 0.01 0.01 0.01 0.01 0.01 0.01 0.01 0.02 0.02 0.02 0.02 0.02 0.02 0.02 0.02 0.02 0.02 0.02 0.03 0.03 0.03 0.03 0.03 0.03 0.03 0.03 0.02 0.01 0.01 0.01 0.01 0.01 0.01 0.01 0.01 0.02 0.02
0.00 0.01 0.01 0.00 0.00 0.01 0.01 0.01 0.01 0.01 0.01 0.01 0.02 0.02 0.02 0.02 0.02 0.02 0.02 0.02 0.02 0.02 0.02 0.03 0.03 0.04 0.05 0.04 0.04 0.03 0.03 0.03 0.03 0.03 0.02 0.01 0.01 0.01 0.01 0.01 0.02 0.02 0.02
0.00 0.00 0.00 0.00 0.00 0.00 0.01 0.01 0.01 0.01 0.01 0.01 0.01 0.02 0.02 0.02 0.02 0.02 0.02 0.02 0.02 0.02 0.03 0.03 0.04 0.04 0.05 0.06 0.06 0.05 0.04 0.03 0.03 0.03 0.03 0.02 0.02 0.02 0.02 0.02 0.02 0.02 0.02
0.00 0.00 0.00 0.00 0.00 0.00 0.01 0.01 0.01 0.01 0.01 0.01 0.01 0.01 0.01 0.02 0.02 0.02 0.02 0.02 0.02 0.02 0.03 0.03 0.03 0.04 0.05 0.06 0.06 0.06 0.06 0.06 0.05 0.05 0.04 0.04 0.03 0.02 0.02 0.03 0.03 0.03 0.03
0.00 0.00 0.00 0.00 0.00 0.00 0.01 0.01 0.01 0.01 0.01 0.01 0.01 0.01 0.01 0.01 0.02 0.02 0.01 0.01 0.01 0.02 0.02 0.03 0.03 0.03 0.04 0.06 0.06 0.06 0.06 0.07 0.07 0.07 0.05 0.04 0.03 0.03 0.03 0.03 0.04 0.04 0.04
0.00 0.00 0.00 0.00 0.00 0.00 0.00 0.00 0.00 0.01 0.01 0.01 0.01 0.01 0.01 0.01 0.02 0.01 0.01 0.01 0.01 0.01 0.02 0.03 0.03 0.03 0.03 0.04 0.05 0.06 0.05 0.05 0.05 0.05 0.05 0.05 0.04 0.04 0.04 0.05 0.05 0.05 0.04
0.00 0.00 0.00 0.00 0.00 0.00 0.00 0.00 0.00 0.00 0.01 0.01 0.01 0.01 0.01 0.01 0.02 0.02 0.01 0.01 0.01 0.02 0.02 0.02 0.03 0.03 0.03 0.04 0.04 0.05 0.05 0.05 0.04 0.04 0.04 0.04 0.04 0.04 0.05 0.05 0.05 0.04 0.04
0.00 0.00 0.00 0.00 0.00 0.00 0.00 0.00 0.00 0.00 0.00 0.00 0.00 0.00 0.00 0.01 0.01 0.01 0.01 0.01 0.02 0.01 0.01 0.01 0.02 0.02 0.02 0.03 0.03 0.03 0.04 0.05 0.05 0.04 0.03 0.04 0.04 0.04 0.04 0.04 0.04 0.05 0.04
0.01 0.01 0.01 0.01 0.01 0.01 0.01 0.01 0.01 0.01 0.01 0.01 0.01 0.01 0.00 0.01 0.01 0.01 0.01 0.01 0.01 0.01 0.01 0.01 0.01 0.01 0.01 0.02 0.02 0.03 0.03 0.04 0.04 0.04 0.04 0.03 0.03 0.03 0.04 0.04 0.04 0.04 0.03
0.01 0.01 0.01 0.01 0.01 0.01 0.01 0.01 0.01 0.01 0.01 0.01 0.01 0.01 0.01 0.01 0.01 0.01 0.01 0.00 0.00 0.00 0.00 0.01 0.01 0.01 0.01 0.01 0.02 0.02 0.03 0.03 0.03 0.03 0.03 0.03 0.03 0.03 0.03 0.04 0.04 0.04 0.03
0.01 0.01 0.01 0.01 0.01 0.01 0.01 0.01 0.01 0.01 0.01 0.01 0.01 0.01 0.01 0.01 0.01 0.01 0.01 0.01 0.01 0.01 0.01 0.01 0.01 0.01 0.01 0.02 0.02 0.02 0.03 0.03 0.03 0.03 0.03 0.03 0.03 0.03 0.03 0.03 0.03 0.04 0.04
0.01 0.01 0.01 0.01 0.01 0.01 0.01 0.01 0.01 0.01 0.01 0.01 0.01 0.01 0.01 0.01 0.01 0.01 0.01 0.01 0.01 0.01 0.01 0.01 0.01 0.02 0.02 0.02 0.02 0.02 0.03 0.03 0.03 0.03 0.03 0.03 0.03 0.03 0.03 0.03 0.03 0.02 0.02
0.01 0.01 0.01 0.01 0.01 0.01 0.01 0.01 0.01 0.02 0.01 0.01 0.01 0.01 0.01 0.01 0.01 0.01 0.01 0.01 0.01 0.01 0.01 0.01 0.01 0.01 0.02 0.02 0.02 0.02 0.02 0.02 0.02 0.02 0.02 0.02 0.03 0.03 0.03 0.03 0.03 0.03 0.02
0.01 0.01 0.01 0.01 0.01 0.01 0.01 0.01 0.01 0.01 0.02 0.01 0.01 0.01 0.01 0.01 0.01 0.01 0.01 0.01 0.01 0.01 0.01 0.01 0.01 0.01 0.01 0.01 0.01 0.01 0.01 0.01 0.02 0.02 0.02 0.02 0.02 0.02 0.03 0.04 0.04 0.04 0.03
0.01 0.01 0.01 0.01 0.01 0.01 0.01 0.01 0.01 0.01 0.02 0.01 0.01 0.01 0.01 0.01 0.01 0.01 0.01 0.01 0.01 0.01 0.01 0.01 0.01 0.01 0.01 0.01 0.01 0.01 0.01 0.01 0.02 0.02 0.02 0.02 0.02 0.02 0.02 0.02 0.04 0.05 0.05
0.01 0.01 0.01 0.01 0.01 0.01 0.01 0.01 0.01 0.02 0.01 0.01 0.01 0.01 0.01 0.01 0.01 0.01 0.01 0.01 0.01 0.01 0.01 0.01 0.01 0.01 0.01 0.01 0.01 0.01 0.01 0.01 0.02 0.02 0.02 0.02 0.02 0.02 0.02 0.02 0.03 0.03 0.04
0.01 0.01 0.01 0.01 0.01 0.01 0.01 0.01 0.01 0.01 0.01 0.01 0.01 0.01 0.01 0.01 0.01 0.01 0.01 0.01 0.01 0.01 0.01 0.01 0.01 0.01 0.01 0.01 0.01 0.01 0.01 0.01 0.02 0.02 0.01 0.01 0.01 0.02 0.02 0.02 0.03 0.03 0.03
0.01 0.01 0.00 0.00 0.01 0.01 0.01 0.01 0.01 0.01 0.01 0.01 0.01 0.01 0.01 0.01 0.01 0.01 0.01 0.01 0.01 0.01 0.01 0.01 0.01 0.01 0.01 0.01 0.01 0.01 0.01 0.01 0.01 0.01 0.01 0.01 0.01 0.01 0.02 0.02 0.02 0.03 0.03
0.01 0.00 0.00 0.00 0.01 0.01 0.01 0.01 0.01 0.01 0.01 0.01 0.01 0.01 0.01 0.01 0.01 0.01 0.01 0.01 0.01 0.01 0.01 0.01 0.01 0.01 0.01 0.01 0.01 0.01 0.01 0.01 0.01 0.01 0.01 0.01 0.01 0.02 0.02 0.02 0.02 0.02 0.03
0.01 0.01 0.01 0.01 0.01 0.01 0.01 0.01 0.01 0.01 0.01 0.01 0.01 0.01 0.02 0.02 0.02 0.02 0.01 0.01 0.01 0.01 0.01 0.01 0.01 0.01 0.01 0.01 0.01 0.01 0.01 0.01 0.02 0.02 0.02 0.02 0.02 0.02 0.02 0.02 0.02 0.02 0.02
0.01 0.01 0.01 0.01 0.01 0.01 0.01 0.02 0.02 0.02 0.02 0.02 0.01 0.02 0.02 0.02 0.02 0.02 0.02 0.01 0.01 0.01 0.01 0.01 0.01 0.01 0.01 0.01 0.01 0.02 0.02 0.02 0.02 0.02 0.02 0.02 0.02 0.03 0.03 0.03 0.02 0.02 0.02
0.01 0.01 0.01 0.01 0.01 0.02 0.02 0.02 0.02 0.02 0.02 0.02 0.02 0.02 0.02 0.02 0.02 0.02 0.02 0.02 0.02 0.02 0.02 0.02 0.02 0.02 0.02 0.02 0.02 0.02 0.02 0.02 0.02 0.02 0.02 0.02 0.03 0.03 0.03 0.03 0.02 0.02 0.02
0.01 0.01 0.01 0.02 0.02 0.02 0.02 0.02 0.03 0.02 0.02 0.02 0.02 0.02 0.02 0.02 0.02 0.02 0.02 0.02 0.03 0.02 0.02 0.02 0.02 0.02 0.02 0.02 0.02 0.02 0.02 0.02 0.02 0.02 0.03 0.03 0.03 0.02 0.02 0.02 0.02 0.02 0.02
0.02 0.02 0.02 0.02 0.02 0.02 0.02 0.03 0.03 0.03 0.03 0.03 0.03 0.03 0.02 0.02 0.02 0.03 0.03 0.03 0.03 0.03 0.02 0.02 0.02 0.02 0.02 0.02 0.02 0.02 0.02 0.02 0.02 0.02 0.03 0.03 0.03 0.02 0.02 0.02 0.02 0.02 0.02
0.01 0.02 0.02 0.02 0.02 0.02 0.02 0.03 0.03 0.03 0.03 0.03 0.03 0.02 0.02 0.02 0.02 0.02 0.02 0.02 0.02 0.02 0.02 0.02 0.02 0.02 0.02 0.02 0.02 0.02 0.02 0.02 0.02 0.02 0.03 0.03 0.03 0.02 0.02 0.02 0.02 0.02 0.02
0.01 0.01 0.01 0.02 0.02 0.02 0.02 0.02 0.03 0.03 0.03 0.03 0.03 0.02 0.02 0.02 0.02 0.02 0.02 0.02 0.02 0.02 0.02 0.02 0.01 0.02 0.01 0.02 0.02 0.02 0.02 0.02 0.02 0.02 0.03 0.03 0.02 0.02 0.02 0.02 0.02 0.02 0.02
MSLP
1010.53 1011.57 1012.51 1013.32 1014.00 1014.59 1015.12 1015.65 1016.20 1016.82 1017.50 1018.25 1019.05 1019.86 1020.66 1021.42 1022.12 1022.75 1023.30 1023.77 1024.18 1024.54 1024.87 1025.19 1025.52 1025.89 1026.32 1026.85 1027.48 1028.22 1029.05 1029.97 1030.91 1031.85 1032.72 1033.48 1034.08 1034.51 1034.76 1034.84 1034.80 1034.65 1034.46
1009.84 1010.86 1011.78 1012.59 1013.27 1013.86 1014.38 1014.89 1015.42 1016.01 1016.67 1017.39 1018.18 1018.99 1019.81 1020.62 1021.37 1022.07 1022.70 1023.25 1023.73 1024.14 1024.51 1024.83 1025.15 1025.49 1025.88 1026.36 1026.93 1027.63 1028.43 1029.33 1030.28 1031.25 1032.17 1033.00 1033.69 1034.21 1034.56 1034.74 1034.78 1034.71 1034.58
1009.19 1010.17 1011.07 1011.86 1012.54 1013.12 1013.64 1014.14 1014.65 1015.21 1015.83 1016.51 1017.26 1018.05 1018.86 1019.67 1020.46 1021.21 1021.91 1022.55 1023.11 1023.61 1024.04 1024.42 1024.77 1025.11 1025.49 1025.92 1026.45 1027.09 1027.85 1028.70 1029.62 1030.58 1031.52 1032.37 1033.12 1033.71 1034.15 1034.42 1034.56 1034.59 1034.54
1008.55 1009.47 1010.32 1011.09 1011.77 1012.35 1012.88 1013.38 1013.88 1014.41 1014.99 1015.63 1016.32 1017.05 1017.83 1018.61 1019.40 1020.18 1020.93 1021.64 1022.29 1022.88 1023.40 1023.86 1024.28 1024.66 1025.05 1025.48 1025.97 1026.56 1027.25 1028.04 1028.91 1029.82 1030.73 1031.60 1032.37 1033.01 1033.52 1033.89 1034.14 1034.28 1034.34
1007.88 1008.72 1009.52 1010.26 1010.92 1011.52 1012.06 1012.58 1013.09 1013.62 1014.17 1014.76 1015.40 1016.07 1016.77 1017.51 1018.26 1019.03 1019.80 1020.56 1021.28 1021.96 1022.58 1023.13 1023.63 1024.08 1024.51 1024.94 1025.42 1025.97 1026.60 1027.33 1028.13 1028.98 1029.84 1030.68 1031.46 1032.15 1032.73 1033.19 1033.55 1033.81 1033.99
1007.17 1007.91 1008.64 1009.34 1009.99 1010.61 1011.18 1011.74 1012.28 1012.83 1013.38 1013.94 1014.52 1015.13 1015.75 1016.41 1017.11 1017.84 1018.59 1019.36 1020.13 1020.88 1021.58 1022.22 1022.80 1023.33 1023.81 1024.28 1024.76 1025.29 1025.88 1026.54 1027.28 1028.07 1028.88 1029.70 1030.47 1031.19 1031.82 1032.38 1032.84 1033.23 1033.55
1006.43 1007.07 1007.71 1008.35 1008.99 1009.62 1010.23 1010.84 1011.44 1012.03 1012.60 1013.16 1013.71 1014.25 1014.80 1015.38 1016.00 1016.66 1017.37 1018.12 1018.90 1019.68 1020.44 1021.16 1021.82 1022.42 1022.96 1023.47 1023.98 1024.51 1025.08 1025.71 1026.40 1027.14 1027.92 1028.71 1029.48 1030.22 1030.91 1031.54 1032.11 1032.61 1033.07
1005.69 1006.20 1006.74 1007.32 1007.93 1008.56 1009.22 1009.88 1010.55 1011.19 1011.81 1012.38 1012.92 1013.42 1013.91 1014.42 1014.95 1015.54 1016.19 1016.90 1017.66 1018.45 1019.24 1020.00 1020.72 1021.38 1021.99 1022.55 1023.10 1023.65 1024.23 1024.85 1025.53 1026.25 1027.01 1027.80 1028.58 1029.34 1030.07 1030.76 1031.41 1032.01 1032.57
1004.97 1005.35 1005.78 1006.28 1006.84 1007.46 1008.14 1008.85 1009.57 1010.28 1010.94 1011.55 1012.09 1012.58 1013.04 1013.49 1013.96 1014.48 1015.07 1015.73 1016.46 1017.23 1018.02 1018.81 1019.56 1020.28 1020.94 1021.56 1022.16 1022.75 1023.37 1024.02 1024.71 1025.45 1026.23 1027.02 1027.82 1028.60 1029.36 1030.10 1030.80 1031.47 1032.10
1004.30 1004.55 1004.86 1005.26 1005.75 1006.34 1007.01 1007.74 1008.49 1009.24 1009.95 1010.59 1011.16 1011.66 1012.11 1012.53 1012.97 1013.45 1013.99 1014.61 1015.30 1016.05 1016.84 1017.63 1018.41 1019.15 1019.86 1020.54 1021.19 1021.85 1022.52 1023.23 1023.98 1024.76 1025.57 1026.39 1027.21 1028.02 1028.80 1029.56 1030.28 1030.99 1031.66
1003.71 1003.82 1004.02 1004.30 1004.70 1005.22 1005.85 1006.55 1007.31 1008.06 1008.79 1009.46 1010.05 1010.57 1011.03 1011.47 1011.90 1012.37 1012.91 1013.51 1014.19 1014.92 1015.70 1016.49 1017.28 1018.05 1018.79 1019.52 1020.23 1020.95 1021.70 1022.48 1023.30 1024.14 1025.01 1025.88 1026.73 1027.56 1028.35 1029.11 1029.84 1030.54 1031.23
1003.18 1003.18 1003.25 1003.43 1003.72 1004.14 1004.68 1005.32 1006.02 1006.75 1007.46 1008.12 1008.73 1009.28 1009.77 1010.24 1010.71 1011.21 1011.77 1012.39 1013.08 1013.81 1014.59 1015.39 1016.18 1016.96 1017.73 1018.49 1019.26 1020.05 1020.87 1021.73 1022.62 1023.55 1024.48 1025.40 1026.29 1027.14 1027.95 1028.70 1029.42 1030.10 1030.77
1002.68 1002.60 1002.57 1002.64 1002.82 1003.12 1003.55 1004.08 1004.68 1005.32 1005.98 1006.62 1007.22 1007.78 1008.31 1008.83 1009.36 1009.93 1010.54 1011.21 1011.93 1012.69 1013.48 1014.28 1015.08 1015.87 1016.65 1017.44 1018.25 1019.09 1019.98 1020.91 1021.88 1022.88 1023.88 1024.86 1025.79 1026.67 1027.48 1028.23 1028.94 1029.60 1030.25
1002.18 1002.05 1001.95 1001.93 1001.99 1002.18 1002.47 1002.86 1003.33 1003.87 1004.43 1005.00 1005.57 1006.14 1006.70 1007.28 1007.89 1008.53 1009.22 1009.95 1010.72 1011.52 1012.33 1013.14 1013.94 1014.73 1015.52 1016.32 1017.16 1018.03 1018.97 1019.95 1020.99 1022.05 1023.11 1024.15 1025.13 1026.04 1026.87 1027.63 1028.33 1028.99 1029.63
1001.62 1001.47 1001.34 1001.26 1001.24 1001.31 1001.47 1001.72 1002.05 1002.44 1002.89 1003.38 1003.90 1004.45 1005.03 1005.66 1006.33 1007.05 1007.81 1008.61 1009.44 1010.28 1011.11 1011.93 1012.72 1013.50 1014.28 1015.08 1015.92 1016.82 1017.78 1018.80 1019.88 1020.99 1022.10 1023.19 1024.21 1025.17 1026.04 1026.82 1027.54 1028.22 1028.88
1000.95 1000.82 1000.70 1000.60 1000.53 1000.51 1000.56 1000.68 1000.87 1001.13 1001.46 1001.85 1002.31 1002.82 1003.41 1004.06 1004.77 1005.54 1006.36 1007.22 1008.08 1008.95 1009.79 1010.60 1011.38 1012.14 1012.91 1013.69 1014.52 1015.41 1016.38 1017.42 1018.53 1019.67 1020.82 1021.95 1023.02 1024.01 1024.93 1025.77 1026.54 1027.26 1027.96
1000.13 1000.06 999.98 999.89 999.80 999.74 999.72 999.75 999.83 999.98 1000.20 1000.50 1000.88 1001.35 1001.91 1002.56 1003.28 1004.08 1004.92 1005.79 1006.67 1007.53 1008.36 1009.15 1009.91 1010.64 1011.38 1012.14 1012.95 1013.84 1014.80 1015.85 1016.96 1018.12 1019.29 1020.45 1021.56 1022.60 1023.58 1024.48 1025.31 1026.11 1026.88
999.16 999.16 999.14 999.09 999.03 998.97 998.91 998.88 998.90 998.97 999.11 999.34 999.66 1000.07 1000.59 1001.21 1001.91 1002.69 1003.51 1004.36 1005.21 1006.03 1006.83 1007.58 1008.31 1009.01 1009.72 1010.47 1011.26 1012.14 1013.09 1014.13 1015.24 1016.40 1017.59 1018.77 1019.91 1021.00 1022.03 1022.99 1023.91 1024.80 1025.67
998.08 998.14 998.18 998.19 998.17 998.13 998.09 998.05 998.04 998.08 998.18 998.35 998.62 998.99 999.46 1000.03 1000.67 1001.39 1002.15 1002.94 1003.72 1004.49 1005.22 1005.93 1006.61 1007.29 1007.98 1008.72 1009.51 1010.38 1011.33 1012.37 1013.48 1014.64 1015.82 1017.00 1018.16 1019.29 1020.36 1021.40 1022.40 1023.38 1024.35
996.93 997.03 997.12 997.18 997.21 997.21 997.20 997.20 997.20 997.24 997.33 997.49 997.73 998.05 998.47 998.97 999.54 1000.17 1000.84 1001.53 1002.22 1002.91 1003.57 1004.23 1004.87 1005.53 1006.22 1006.96 1007.77 1008.65 1009.62 1010.66 1011.77 1012.92 1014.10 1015.27 1016.44 1017.57 1018.69 1019.77 1020.84 1021.90 1022.97
995.81 995.91 996.00 996.09 996.15 996.20 996.24 996.28 996.33 996.40 996.51 996.67 996.90 997.19 997.55 997.98 998.47 999.00 999.56 1000.14 1000.73 1001.32 1001.92 1002.52 1003.14 1003.80 1004.50 1005.27 1006.11 1007.03 1008.02 1009.08 1010.20 1011.34 1012.51 1013.67 1014.82 1015.96 1017.08 1018.20 1019.31 1020.44 1021.59
994.80 994.84 994.91 994.98 995.06 995.13 995.21 995.29 995.39 995.50 995.65 995.83 996.06 996.34 996.66 997.03 997.43 997.86 998.31 998.79 999.27 999.78 1000.31 1000.87 1001.48 1002.14 1002.88 1003.69 1004.59 1005.56 1006.59 1007.68 1008.81 1009.96 1011.10 1012.24 1013.37 1014.49 1015.60 1016.73 1017.87 1019.04 1020.24
993.99 993.94 993.93 993.95 994.00 994.07 994.16 994.27 994.40 994.56 994.74 994.96 995.20 995.47 995.76 996.07 996.40 996.74 997.10 997.48 997.88 998.31 998.78 999.32 999.92 1000.61 1001.39 1002.26 1003.22 1004.25 1005.34 1006.47 1007.61 1008.76 1009.89 1011.01 1012.11 1013.20 1014.29 1015.40 1016.55 1017.74 1018.97
993.44 993.26 993.14 993.08 993.06 993.10 993.17 993.29 993.43 993.62 993.83 994.06 994.32 994.58 994.86 995.13 995.40 995.68 995.96 996.26 996.59 996.96 997.40 997.91 998.52 999.24 1000.06 1000.98 1002.00 1003.08 1004.22 1005.38 1006.55 1007.70 1008.83 1009.92 1010.99 1012.05 1013.12 1014.21 1015.35 1016.53 1017.78
993.19 992.87 992.62 992.45 992.35 992.32 992.35 992.44 992.58 992.76 992.98 993.23 993.49 993.75 994.01 994.26 994.49 994.72 994.94 995.18 995.46 995.78 996.19 996.69 997.30 998.03 998.88 999.84 1000.89 1002.02 1003.19 1004.37 1005.56 1006.71 1007.83 1008.91 1009.97 1011.01 1012.05 1013.12 1014.24 1015.42 1016.66
993.24 992.79 992.42 992.14 991.94 991.83 991.79 991.83 991.94 992.10 992.30 992.54 992.79 993.05 993.29 993.52 993.72 993.91 994.10 994.30 994.53 994.82 995.19 995.67 996.26 996.98 997.83 998.80 999.87 1001.00 1002.19 1003.38 1004.57 1005.72 1006.84 1007.92 1008.97 1010.00 1011.04 1012.10 1013.21 1014.38 1015.61
Thickness
5511 5511 5511 5511 5512 5512 5511 5510 5509 5507 5506 5505 5503 5501 5500 5499 5497 5496 5495 5493 5491 5489 5487 5486 5484 5481 5479 5477 5475 5473 5471 5468 5467 5469 5466 5464 5461 5459 5458 5455 5453 5451 5449
5502 5502 5502 5501 5501 5501 5501 5500 5499 5498 5496 5495 5493 5492 5491 5490 5488 5487 5486 5484 5482 5481 5479 5478 5476 5474 5471 5469 5467 5465 5463 5461 5458 5458 5457 5454 5451 5450 5448 5446 5444 5442 5439
5492 5491 5491 5491 5491 5491 5491 5490 5489 5487 5486 5484 5483 5482 5481 5480 5479 5478 5477 5476 5474 5472 5470 5469 5467 5464 5463 5461 5459 5457 5455 5452 5449 5447 5447 5443 5440 5438 5436 5435 5433 5431 5429
5482 5481 5481 5481 5481 5480 5480 5480 5478 5477 5475 5474 5473 5472 5471 5470 5469 5468 5467 5466 5464 5462 5461 5459 5457 5455 5454 5452 5450 5447 5444 5442 5439 5437 5436 5432 5429 5427 5424 5422 5421 5419 5418
5471 5471 5470 5470 5469 5469 5469 5468 5467 5466 5465 5464 5463 5462 5461 5460 5460 5458 5457 5456 5454 5452 5451 5450 5448 5446 5444 5442 5440 5437 5434 5432 5430 5427 5426 5423 5420 5416 5414 5413 5410 5408 5407
5459 5459 5458 5458 5457 5457 5457 5456 5456 5455 5454 5453 5452 5451 5450 5450 5450 5449 5447 5445 5444 5442 5441 5440 5438 5436 5434 5432 5430 5427 5424 5422 5421 5419 5417 5415 5414 5410 5406 5402 5399 5396 5394
5446 5446 5446 5446 5446 5445 5445 5444 5444 5443 5442 5441 5441 5440 5439 5439 5439 5438 5436 5435 5433 5432 5430 5428 5427 5426 5423 5421 5419 5417 5415 5413 5411 5409 5408 5407 5404 5402 5397 5392 5388 5385 5384
5433 5432 5433 5433 5433 5432 5432 5431 5431 5430 5429 5429 5428 5427 5427 5427 5427 5426 5425 5423 5421 5420 5418 5417 5415 5414 5412 5410 5408 5406 5404 5403 5401 5399 5398 5396 5394 5391 5387 5384 5380 5375 5373
5419 5419 5419 5419 5419 5419 5418 5418 5417 5416 5416 5415 5415 5414 5414 5414 5414 5414 5412 5410 5409 5408 5406 5405 5403 5402 5401 5399 5396 5395 5394 5393 5390 5388 5386 5384 5382 5379 5376 5372 5368 5363 5362
5405 5405 5405 5405 5406 5406 5405 5405 5404 5403 5403 5402 5401 5400 5400 5400 5400 5400 5399 5398 5397 5396 5394 5393 5391 5390 5389 5387 5384 5383 5382 5382 5378 5376 5374 5372 5369 5367 5364 5361 5357 5353 5350
5390 5390 5390 5390 5391 5391 5391 5390 5390 5389 5389 5388 5387 5387 5386 5386 5386 5386 5385 5384 5384 5383 5382 5381 5379 5378 5376 5375 5373 5371 5371 5368 5365 5363 5360 5358 5356 5353 5351 5348 5345 5341 5339
5374 5375 5375 5375 5376 5376 5376 5375 5375 5374 5373 5372 5372 5372 5371 5371 5371 5371 5371 5371 5370 5369 5368 5367 5366 5364 5363 5362 5360 5359 5357 5353 5350 5348 5346 5344 5341 5339 5337 5334 5332 5329 5327
5358 5359 5360 5360 5360 5360 5360 5360 5359 5358 5357 5358 5357 5357 5357 5356 5356 5356 5355 5355 5355 5354 5353 5352 5352 5351 5349 5348 5346 5344 5341 5338 5335 5333 5332 5330 5328 5325 5323 5321 5318 5316 5314
5342 5343 5344 5344 5345 5344 5345 5345 5344 5344 5343 5343 5343 5343 5342 5341 5340 5341 5340 5340 5340 5339 5338 5337 5336 5335 5333 5332 5329 5327 5324 5323 5321 5319 5318 5315 5313 5310 5308 5305 5303 5301 5299
5326 5327 5328 5328 5329 5329 5330 5330 5330 5330 5330 5330 5329 5328 5328 5328 5328 5328 5326 5326 5325 5325 5323 5320 5319 5317 5316 5314 5312 5310 5308 5307 5304 5303 5302 5300 5298 5296 5294 5291 5288 5286 5284
5309 5310 5311 5312 5312 5313 5313 5313 5314 5315 5315 5316 5316 5315 5315 5315 5315 5314 5314 5312 5311 5309 5306 5303 5301 5299 5298 5297 5295 5293 5292 5290 5289 5287 5286 5285 5283 5281 5279 5276 5273 5271 5270
5292 5294 5295 5295 5296 5296 5296 5296 5297 5298 5298 5299 5300 5300 5300 5300 5300 5300 5299 5297 5294 5292 5287 5286 5284 5283 5281 5280 5278 5277 5276 5274 5273 5271 5271 5269 5267 5266 5264 5262 5259 5257 5255
5277 5278 5279 5279 5280 5280 5280 5280 5280 5280 5281 5282 5283 5284 5284 5284 5284 5284 5282 5280 5276 5273 5271 5269 5268 5267 5265 5264 5262 5261 5260 5258 5257 5256 5255 5254 5253 5251 5249 5247 5245 5243 5241
5262 5263 5263 5263 5264 5264 5264 5264 5264 5264 5265 5266 5266 5267 5268 5267 5267 5266 5265 5262 5261 5259 5256 5255 5253 5251 5250 5249 5247 5245 5244 5243 5242 5240 5240 5239 5238 5236 5234 5233 5231 5229 5227
5248 5249 5249 5248 5249 5249 5249 5249 5249 5249 5250 5250 5251 5252 5252 5250 5250 5250 5249 5247 5246 5245 5243 5242 5240 5238 5236 5234 5232 5231 5229 5228 5227 5227 5226 5225 5223 5222 5220 5218 5217 5215 5214
5234 5234 5234 5234 5234 5235 5235 5236 5236 5237 5237 5238 5238 5239 5240 5238 5238 5237 5236 5235 5233 5232 5231 5229 5228 5225 5223 5221 5219 5218 5216 5215 5214 5213 5212 5211 5210 5208 5206 5205 5203 5201 5201
5219 5220 5220 5220 5221 5222 5223 5223 5223 5224 5225 5224 5225 5224 5226 5224 5223 5223 5222 5222 5221 5220 5218 5217 5216 5214 5212 5210 5208 5206 5204 5203 5201 5200 5199 5197 5196 5194 5193 5191 5190 5188 5187
5205 5205 5206 5207 5207 5208 5209 5210 5211 5211 5212 5212 5211 5211 5210 5210 5210 5210 5210 5209 5209 5208 5207 5205 5204 5203 5201 5199 5197 5194 5193 5192 5190 5187 5186 5185 5183 5181 5180 5179 5178 5176 5175
5190 5192 5193 5194 5194 5194 5196 5197 5198 5199 5200 5200 5199 5199 5199 5199 5198 5198 5198 5197 5197 5197 5196 5194 5193 5192 5191 5188 5186 5184 5183 5181 5179 5177 5175 5174 5172 5171 5169 5168 5167 5165 5163
5177 5178 5179 5181 5182 5183 5184 5185 5186 5187 5188 5188 5189 5189 5189 5188 5188 5188 5187 5187 5187 5187 5186 5185 5183 5182 5181 5179 5177 5175 5174 5172 5169 5167 5165 5163 5162 5161 5159 5157 5156 5154 5152
5164 5165 5166 5168 5169 5171 5173 5174 5175 5176 5176 5177 5178 5178 5178 5178 5178 5178 5177 5177 5176 5176 5176 5175 5174 5172 5171 5170 5168 5166 5165 5164 5162 5159 5157 5155 5153 5151 5149 5148 5146 5145 5143